EW3845 Weather Reports


time (UTC)temp
C
wind
direction
speed
KPH
gust
KPH
rain 1hr
cm
rain 24hr
cm
rain mn
cm
humidity
%
barometer
mb
20260903174538 22 289 0.0 0.0 0.00 0.05 0.05 81 1017.2
20260903173037 22 360 0.0 0.0 0.00 0.05 0.05 80 1017.0
20260903171543 22 290 0.0 0.0 0.00 0.05 0.05 80 1017.0
20260903170043 22 360 0.0 0.0 0.00 0.05 0.05 79 1016.9
20260903164537 22 293 0.0 0.0 0.00 0.05 0.05 79 1016.7
20260903163040 22 306 0.0 0.0 0.00 0.05 0.05 78 1016.7
20260903161536 22 289 0.0 0.0 0.00 0.05 0.05 78 1016.8
20260903160035 22 290 0.0 0.0 0.00 0.05 0.05 78 1017.0
20260903154534 22 296 0.0 0.0 0.00 0.05 0.05 78 1017.1
20260903153032 22 360 0.0 0.0 0.00 0.05 0.05 79 1017.2
20260903151532 22 289 0.0 0.0 0.00 0.05 0.05 79 1017.2
20260903150043 22 360 0.0 0.0 0.00 0.05 0.05 79 1017.2
20260903144530 22 360 0.0 0.0 0.00 0.05 0.05 80 1017.2
20260903143036 22 298 0.0 0.0 0.00 0.05 0.05 80 1017.2
20260903141526 22 360 0.0 0.0 0.00 0.05 0.05 81 1017.2
20260903140025 21 360 0.0 0.0 0.00 0.05 0.05 81 1017.3
20260903134525 21 289 0.0 0.0 0.00 0.05 0.05 82 1017.5
20260903133022 21 286 0.0 0.0 0.00 0.05 0.05 82 1017.5
20260903131522 21 292 0.0 0.0 0.00 0.05 0.05 82 1017.4
20260903130024 21 316 0.0 0.0 0.00 0.05 0.05 81 1017.3
20260903124521 21 290 0.0 0.0 0.00 0.05 0.05 82 1017.3
20260903123019 21 299 0.0 0.0 0.00 0.05 0.05 84 1017.3
20260903121515 20 284 0.0 0.0 0.00 0.05 0.05 87 1017.3
20260903120015 20 289 0.0 0.0 0.00 0.05 0.05 89 1017.3
20260903114513 19 360 0.0 0.0 0.00 0.05 0.05 89 1017.4
20260903113012 19 295 0.0 0.0 0.00 0.05 0.05 89 1017.4
20260903111511 19 286 0.0 0.0 0.00 0.05 0.05 88 1017.2
20260903110011 18 360 0.0 0.0 0.00 0.05 0.05 89 1017.2
20260903104512 18 287 0.0 0.0 0.00 0.05 0.05 89 1017.2
20260903103009 18 296 0.0 0.0 0.00 0.05 0.05 90 1017.2
20260903101521 18 294 0.0 0.0 0.03 0.05 0.05 90 1017.3
20260903100008 18 290 0.0 0.0 0.03 0.05 0.05 90 1017.2
20260903094508 18 290 0.0 0.0 0.05 0.05 0.05 90 1017.1
20260903093006 18 360 0.0 0.0 0.05 0.05 0.05 89 1016.9
20260903091506 18 360 0.0 0.0 0.05 0.05 0.05 87 1017.2
20260903090005 18 360 0.0 0.0 0.05 0.05 0.05 84 1017.2
20260903084509 19 289 0.0 0.0 0.00 0.00 0.00 79 1017.1
20260903083002 20 360 0.0 0.0 0.00 0.00 0.00 77 1017.0
20260903081502 20 284 0.0 0.0 0.00 0.00 0.00 76 1016.8
20260903080104 20 288 0.0 0.0 0.00 0.00 0.00 77 1016.8
20260903080000 20 360 0.0 0.0 0.00 0.00 0.00 77 1016.7
20260903074605 19 189 0.0 0.0 0.00 0.00 0.00 77 1016.9
20260903073057 19 290 0.0 0.0 0.00 0.00 0.00 76 1016.9
20260903071556 19 296 0.0 0.0 0.00 0.00 0.00 76 1017.0
20260903070053 18 360 0.0 0.0 0.00 0.00 0.00 76 1017.0
20260903064601 18 284 0.0 0.0 0.00 0.00 0.00 75 1016.9
20260903063049 18 360 0.0 0.0 0.00 0.00 0.00 74 1016.7
20260903061547 18 286 0.0 0.0 0.00 0.00 0.00 74 1017.1
20260903060047 18 188 0.0 0.0 0.00 0.00 0.00 74 1016.9
20260903054544 17 157 0.0 0.0 0.00 0.00 0.00 74 1017.1
20260903053057 17 151 0.0 0.0 0.00 0.00 0.00 74 1016.7
20260903051547 17 171 0.0 0.0 0.00 0.00 0.00 75 1016.8
20260903050041 17 170 0.0 0.0 0.00 0.00 0.00 75 1017.2
20260903044542 17 171 0.0 0.0 0.00 0.00 0.00 75 1017.2
20260903043040 17 171 0.0 0.0 0.00 0.00 0.00 75 1017.1
20260903041549 17 171 0.0 0.0 0.00 0.00 0.00 76 1016.9
20260903040046 16 171 0.0 0.0 0.00 0.00 0.00 77 1017.0
20260903034536 16 169 0.0 0.0 0.00 0.00 0.00 76 1017.1
20260903033034 17 170 0.0 0.0 0.00 0.00 0.00 76 1017.3
20260903031534 17 194 0.0 0.0 0.00 0.00 0.00 76 1017.6
20260903030040 17 195 0.0 0.0 0.00 0.00 0.00 76 1017.5
20260903024532 17 195 0.0 0.0 0.00 0.00 0.00 76 1017.6
20260903023034 17 195 0.0 0.0 0.00 0.00 0.00 76 1017.5
20260903021529 17 195 0.0 0.0 0.00 0.00 0.00 76 1017.8
20260903020028 17 195 0.0 0.0 0.00 0.00 0.00 76 1017.8
20260903014526 17 195 0.0 0.0 0.00 0.00 0.00 76 1018.1
20260903013024 17 195 0.0 0.0 0.00 0.00 0.00 76 1018.4
20260903011524 17 202 0.0 0.0 0.00 0.00 0.00 76 1018.3
20260903010024 17 226 0.0 0.0 0.00 0.00 0.00 76 1018.4
20260903004522 17 226 0.0 0.0 0.00 0.00 0.00 76 1018.4
20260903003020 17 229 0.0 0.0 0.00 0.00 0.00 76 1018.5
20260903001525 17 229 0.0 0.0 0.00 0.00 0.00 76 1018.6
20260903000023 17 230 0.0 0.0 0.00 0.00 0.00 77 1018.8
20260902234517 17 231 0.0 0.0 0.00 0.00 0.00 77 1018.9
20260902233016 17 231 0.0 0.0 0.00 0.00 0.00 78 1019.0
20260902231522 17 261 0.0 0.0 0.00 0.00 0.00 78 1019.1
20260902230013 17 261 0.0 0.0 0.00 0.00 0.00 78 1019.3
20260902224513 17 360 0.0 0.0 0.00 0.00 0.00 78 1019.2
20260902223011 17 360 0.0 0.0 0.00 0.00 0.00 78 1019.3
20260902221509 17 360 0.0 0.0 0.00 0.00 0.00 77 1019.3
20260902220008 17 360 0.0 0.0 0.00 0.00 0.00 77 1019.5
20260902214507 17 360 0.0 0.0 0.00 0.00 0.00 77 1019.4
20260902213006 17 360 0.0 0.0 0.00 0.00 0.00 77 1019.5
20260902211510 18 360 0.0 0.0 0.00 0.00 0.00 76 1019.4
20260902210006 18 360 0.0 0.0 0.00 0.00 0.00 76 1019.5
20260902204506 18 360 0.0 0.0 0.00 0.00 0.00 76 1019.4
20260902203005 18 360 0.0 0.0 0.00 0.00 0.00 76 1019.7
20260902201504 18 360 0.0 0.0 0.00 0.00 0.00 76 1019.7
20260902200004 18 360 0.0 0.0 0.00 0.00 0.00 75 1019.7
20260902194504 18 360 0.0 0.0 0.00 0.00 0.00 75 1019.7
20260902193004 18 360 0.0 0.0 0.00 0.00 0.00 74 1019.8
20260902191503 19 360 0.0 0.0 0.00 0.00 0.00 74 1019.6
20260902190007 19 360 0.0 0.0 0.00 0.00 0.00 72 1019.7
20260902184503 19 360 0.0 0.0 0.00 0.00 0.00 71 1019.7
20260902183002 20 360 0.0 0.0 0.00 0.00 0.00 70 1019.6
20260902181501 20 360 0.0 0.0 0.00 0.00 0.00 70 1019.5
20260902180005 20 360 0.0 0.0 0.00 0.00 0.00 68 1019.4